Zurück zum Katalog

STARLINK-3947

AktivKommunikationVLEO
NORAD 52607·PAYLOAD·🇺🇸 United States

Gestartet May 14, 2022 von Cape Canaveral Space Force Station

Loading…

Nächste Überflüge (nächste 24 Stunden)

TLE

AktuellSource: CelesTrak SupGP

Epoche: Sep 14, 2026, 20:33 UTC

1 52607C 22052K   26257.85673611 -.00048880  00000+0 -15720-2 0  2573
2 52607  53.1579 144.0793 0001338  91.5474  71.9688 15.31722435    18

Verfolge STARLINK-3947 in Echtzeit mit AllMySat

Download on the App Store